Time,TemperatureF,DewpointF,PressureIn,WindDirection,WindDirectionDegrees,WindSpeedMPH,WindSpeedGustMPH,Humidity,HourlyPrecipIn,Conditions,Clouds,dailyrainin,SoftwareType,DateUTC
2013-03-01 00:00:00,38.7,30.8,29.71,West,278,3.0,5.0,73,0.00,,,0.01,Wunderground v.1.15,2013-03-01 05:00:00,
2013-03-01 00:05:00,38.7,30.8,29.71,WNW,296,4.0,6.0,73,0.00,,,0.00,Wunderground v.1.15,2013-03-01 05:05:00,
2013-03-01 00:10:00,38.8,30.9,29.72,West,261,5.0,5.0,73,0.00,,,0.00,Wunderground v.1.15,2013-03-01 05:10:00,
2013-03-01 00:15:00,38.7,31.1,29.72,West,263,5.0,5.0,74,0.00,,,0.00,Wunderground v.1.15,2013-03-01 05:15:00,
2013-03-01 00:20:00,38.8,30.9,29.72,WSW,257,5.0,9.0,73,0.00,,,0.00,Wunderground v.1.15,2013-03-01 05:20:00,
2013-03-01 00:25:00,38.8,31.2,29.72,West,271,6.0,9.0,74,0.00,,,0.00,Wunderground v.1.15,2013-03-01 05:25:00,
2013-03-01 00:30:00,38.7,31.1,29.72,WSW,247,5.0,5.0,74,0.00,,,0.00,Wunderground v.1.15,2013-03-01 05:30:00,
2013-03-01 00:35:00,38.7,31.1,29.72,West,265,4.0,6.0,74,0.00,,,0.00,Wunderground v.1.15,2013-03-01 05:35:00,
2013-03-01 00:40:00,38.6,31.4,29.72,West,277,5.0,5.0,75,0.00,,,0.00,Wunderground v.1.15,2013-03-01 05:40:00,
2013-03-01 00:45:00,38.6,31.4,29.72,WSW,252,5.0,6.0,75,0.00,,,0.00,Wunderground v.1.15,2013-03-01 05:45:00,
2013-03-01 00:50:00,38.6,31.4,29.72,WNW,286,5.0,5.0,75,0.00,,,0.00,Wunderground v.1.15,2013-03-01 05:50:00,
2013-03-01 00:55:00,38.6,31.7,29.72,West,267,6.0,6.0,76,0.00,,,0.00,Wunderground v.1.15,2013-03-01 05:55:00,
2013-03-01 01:00:00,38.5,31.6,29.72,West,273,5.0,5.0,76,0.00,,,0.00,Wunderground v.1.15,2013-03-01 06:00:00,
2013-03-01 01:10:00,38.5,31.6,29.73,West,259,4.0,6.0,76,0.00,,,0.00,Wunderground v.1.15,2013-03-01 06:10:00,
2013-03-01 01:15:00,38.5,31.6,29.73,West,273,4.0,6.0,76,0.00,,,0.00,Wunderground v.1.15,2013-03-01 06:15:00,
2013-03-01 01:20:00,38.6,31.4,29.73,West,269,4.0,4.0,75,0.00,,,0.00,Wunderground v.1.15,2013-03-01 06:20:00,
2013-03-01 01:25:00,38.6,31.4,29.73,West,271,3.0,4.0,75,0.00,,,0.00,Wunderground v.1.15,2013-03-01 06:25:00,
2013-03-01 01:30:00,38.6,31.4,29.74,West,275,3.0,5.0,75,0.00,,,0.00,Wunderground v.1.15,2013-03-01 06:30:00,
2013-03-01 01:35:00,38.6,31.7,29.74,West,278,3.0,5.0,76,0.00,,,0.00,Wunderground v.1.15,2013-03-01 06:35:00,
2013-03-01 01:40:00,38.5,31.3,29.74,West,273,4.0,6.0,75,0.00,,,0.00,Wunderground v.1.15,2013-03-01 06:40:00,
2013-03-01 01:50:00,38.5,31.3,29.74,WNW,286,6.0,6.0,75,0.00,,,0.00,Wunderground v.1.15,2013-03-01 06:50:00,
2013-03-01 01:55:00,38.5,31.3,29.74,WSW,245,6.0,6.0,75,0.00,,,0.00,Wunderground v.1.15,2013-03-01 06:55:00,
2013-03-01 02:00:00,38.5,31.3,29.74,West,272,6.0,11.0,75,0.00,,,0.00,Wunderground v.1.15,2013-03-01 07:00:00,
2013-03-01 02:10:00,38.5,31.3,29.75,NW,317,4.0,4.0,75,0.00,,,0.00,Wunderground v.1.15,2013-03-01 07:10:00,
2013-03-01 02:20:00,38.3,31.4,29.75,West,267,3.0,4.0,76,0.00,,,0.00,Wunderground v.1.15,2013-03-01 07:20:00,
2013-03-01 02:25:00,38.3,31.7,29.75,WSW,252,3.0,4.0,77,0.00,,,0.00,Wunderground v.1.15,2013-03-01 07:25:00,
2013-03-01 02:30:00,38.2,31.3,29.74,WNW,285,3.0,3.0,76,0.00,,,0.00,Wunderground v.1.15,2013-03-01 07:30:00,
2013-03-01 02:35:00,38.1,31.5,29.74,West,264,4.0,4.0,77,0.00,,,0.00,Wunderground v.1.15,2013-03-01 07:35:00,
2013-03-01 02:40:00,38.0,31.4,29.74,WSW,252,4.0,8.0,77,0.00,,,0.00,Wunderground v.1.15,2013-03-01 07:40:00,
2013-03-01 02:45:00,37.9,31.7,29.74,West,266,6.0,8.0,78,0.00,,,0.00,Wunderground v.1.15,2013-03-01 07:45:00,
2013-03-01 02:55:00,37.9,31.3,29.74,West,280,5.0,6.0,77,0.00,,,0.00,Wunderground v.1.15,2013-03-01 07:55:00,
2013-03-01 03:00:00,37.9,31.3,29.74,WNW,286,4.0,4.0,77,0.00,,,0.00,Wunderground v.1.15,2013-03-01 08:00:00,
2013-03-01 03:10:00,38.0,31.4,29.74,WSW,241,5.0,6.0,77,0.00,,,0.00,Wunderground v.1.15,2013-03-01 08:10:00,
2013-03-01 03:15:00,38.0,31.4,29.74,WNW,298,4.0,6.0,77,0.00,,,0.00,Wunderground v.1.15,2013-03-01 08:15:00,
2013-03-01 03:20:00,37.9,31.3,29.74,West,270,4.0,5.0,77,0.00,,,0.00,Wunderground v.1.15,2013-03-01 08:20:00,
2013-03-01 03:25:00,37.9,31.3,29.74,West,275,4.0,5.0,77,0.00,,,0.00,Wunderground v.1.15,2013-03-01 08:25:00,
2013-03-01 03:35:00,37.9,31.0,29.74,West,281,4.0,4.0,76,0.00,,,0.00,Wunderground v.1.15,2013-03-01 08:35:00,
2013-03-01 03:40:00,37.9,31.3,29.74,WNW,290,3.0,3.0,77,0.00,,,0.00,Wunderground v.1.15,2013-03-01 08:40:00,
2013-03-01 03:45:00,37.9,31.0,29.75,West,273,2.0,6.0,76,0.00,,,0.00,Wunderground v.1.15,2013-03-01 08:45:00,
2013-03-01 03:50:00,37.9,31.0,29.75,WNW,283,3.0,3.0,76,0.00,,,0.00,Wunderground v.1.15,2013-03-01 08:50:00,
2013-03-01 03:55:00,37.9,31.0,29.75,WNW,284,3.0,3.0,76,0.00,,,0.00,Wunderground v.1.15,2013-03-01 08:55:00,
2013-03-01 04:00:00,37.9,31.0,29.75,West,277,3.0,4.0,76,0.00,,,0.00,Wunderground v.1.15,2013-03-01 09:00:00,
2013-03-01 04:10:00,37.9,30.7,29.75,WNW,282,2.0,4.0,75,0.00,,,0.00,Wunderground v.1.15,2013-03-01 09:10:00,
2013-03-01 04:15:00,37.9,30.7,29.75,West,275,3.0,5.0,75,0.00,,,0.00,Wunderground v.1.15,2013-03-01 09:15:00,
2013-03-01 04:20:00,37.9,30.7,29.75,WNW,284,2.0,2.0,75,0.00,,,0.00,Wunderground v.1.15,2013-03-01 09:20:00,
2013-03-01 04:30:00,37.7,30.5,29.75,West,266,3.0,4.0,75,0.00,,,0.00,Wunderground v.1.15,2013-03-01 09:30:00,
2013-03-01 04:35:00,37.7,30.5,29.75,West,270,4.0,4.0,75,0.00,,,0.00,Wunderground v.1.15,2013-03-01 09:35:00,
2013-03-01 04:40:00,37.7,30.5,29.75,West,280,5.0,6.0,75,0.00,,,0.00,Wunderground v.1.15,2013-03-01 09:40:00,
2013-03-01 04:45:00,37.8,30.6,29.75,West,281,6.0,6.0,75,0.00,,,0.00,Wunderground v.1.15,2013-03-01 09:45:00,
2013-03-01 04:50:00,37.7,30.5,29.75,West,269,5.0,5.0,75,0.00,,,0.00,Wunderground v.1.15,2013-03-01 09:50:00,
2013-03-01 05:00:00,37.6,30.7,29.75,West,275,6.0,7.0,76,0.00,,,0.00,Wunderground v.1.15,2013-03-01 10:00:00,
2013-03-01 05:10:00,37.6,30.4,29.75,WNW,298,6.0,7.0,75,0.00,,,0.00,Wunderground v.1.15,2013-03-01 10:10:00,
2013-03-01 05:15:00,37.7,30.5,29.75,West,265,7.0,7.0,75,0.00,,,0.00,Wunderground v.1.15,2013-03-01 10:15:00,
2013-03-01 05:20:00,37.7,30.5,29.75,WNW,296,7.0,8.0,75,0.00,,,0.00,Wunderground v.1.15,2013-03-01 10:20:00,
2013-03-01 05:25:00,37.7,30.5,29.75,West,271,7.0,9.0,75,0.00,,,0.00,Wunderground v.1.15,2013-03-01 10:25:00,
2013-03-01 05:35:00,37.7,30.5,29.75,West,266,8.0,8.0,75,0.00,,,0.00,Wunderground v.1.15,2013-03-01 10:35:00,
2013-03-01 05:40:00,37.7,30.5,29.75,West,265,7.0,7.0,75,0.00,,,0.00,Wunderground v.1.15,2013-03-01 10:40:00,
2013-03-01 05:45:00,37.7,30.5,29.75,WNW,291,7.0,7.0,75,0.00,,,0.00,Wunderground v.1.15,2013-03-01 10:45:00,
2013-03-01 05:50:00,37.9,30.0,29.75,WNW,286,9.0,17.0,73,0.00,,,0.00,Wunderground v.1.15,2013-03-01 10:50:00,
2013-03-01 05:55:00,38.0,30.1,29.75,West,263,11.0,17.0,73,0.00,,,0.00,Wunderground v.1.15,2013-03-01 10:55:00,
2013-03-01 06:00:00,38.0,30.1,29.75,WNW,285,12.0,15.0,73,0.00,,,0.00,Wunderground v.1.15,2013-03-01 11:00:00,
2013-03-01 06:10:00,38.0,30.1,29.75,West,279,11.0,11.0,73,0.00,,,0.00,Wunderground v.1.15,2013-03-01 11:10:00,
2013-03-01 06:15:00,38.0,30.1,29.76,WSW,249,10.0,11.0,73,0.00,,,0.00,Wunderground v.1.15,2013-03-01 11:15:00,
2013-03-01 06:20:00,37.9,30.4,29.76,West,280,9.0,9.0,74,0.00,,,0.00,Wunderground v.1.15,2013-03-01 11:20:00,
2013-03-01 06:25:00,37.8,30.3,29.76,West,260,9.0,9.0,74,0.00,,,0.00,Wunderground v.1.15,2013-03-01 11:25:00,
2013-03-01 06:30:00,37.7,30.5,29.76,West,263,9.0,9.0,75,0.00,,,0.00,Wunderground v.1.15,2013-03-01 11:30:00,
2013-03-01 06:40:00,37.5,30.3,29.76,West,277,8.0,8.0,75,0.00,,,0.00,Wunderground v.1.15,2013-03-01 11:40:00,
2013-03-01 06:45:00,37.5,30.3,29.76,West,269,8.0,9.0,75,0.00,,,0.00,Wunderground v.1.15,2013-03-01 11:45:00,
2013-03-01 06:50:00,37.6,30.4,29.76,West,272,9.0,9.0,75,0.00,,,0.00,Wunderground v.1.15,2013-03-01 11:50:00,
2013-03-01 06:55:00,37.6,30.1,29.76,WSW,254,9.0,9.0,74,0.00,,,0.00,Wunderground v.1.15,2013-03-01 11:55:00,
2013-03-01 07:00:00,37.8,30.3,29.76,WNW,290,10.0,10.0,74,0.00,,,0.00,Wunderground v.1.15,2013-03-01 12:00:00,
2013-03-01 07:10:00,37.8,30.3,29.77,West,269,10.0,10.0,74,0.00,,,0.00,Wunderground v.1.15,2013-03-01 12:10:00,
2013-03-01 07:15:00,37.8,30.3,29.77,West,276,11.0,11.0,74,0.00,,,0.00,Wunderground v.1.15,2013-03-01 12:15:00,
2013-03-01 07:20:00,37.8,30.3,29.77,West,279,10.0,10.0,74,0.00,,,0.00,Wunderground v.1.15,2013-03-01 12:20:00,
2013-03-01 07:25:00,37.8,29.9,29.77,West,267,10.0,10.0,73,0.00,,,0.00,Wunderground v.1.15,2013-03-01 12:25:00,
2013-03-01 07:30:00,37.9,30.0,29.78,West,281,10.0,12.0,73,0.00,,,0.00,Wunderground v.1.15,2013-03-01 12:30:00,
2013-03-01 07:35:00,38.1,30.2,29.78,WNW,301,10.0,12.0,73,0.00,,,0.00,Wunderground v.1.15,2013-03-01 12:35:00,
2013-03-01 07:40:00,38.3,30.4,29.78,West,275,11.0,11.0,73,0.00,,,0.00,Wunderground v.1.15,2013-03-01 12:40:00,
2013-03-01 07:45:00,38.2,30.0,29.78,West,272,11.0,11.0,72,0.00,,,0.00,Wunderground v.1.15,2013-03-01 12:45:00,
2013-03-01 07:50:00,38.2,30.0,29.78,West,266,12.0,16.0,72,0.00,,,0.00,Wunderground v.1.15,2013-03-01 12:50:00,
2013-03-01 07:55:00,38.2,30.0,29.79,WNW,298,13.0,16.0,72,0.00,,,0.00,Wunderground v.1.15,2013-03-01 12:55:00,
2013-03-01 08:00:00,38.2,30.0,29.79,WSW,251,12.0,12.0,72,0.00,,,0.00,Wunderground v.1.15,2013-03-01 13:00:00,
2013-03-01 08:10:00,38.2,30.0,29.79,West,265,12.0,12.0,72,0.00,,,0.00,Wunderground v.1.15,2013-03-01 13:10:00,
2013-03-01 08:15:00,38.3,30.1,29.79,West,269,11.0,13.0,72,0.00,,,0.00,Wunderground v.1.15,2013-03-01 13:15:00,
2013-03-01 08:20:00,38.4,29.8,29.80,West,277,13.0,14.0,71,0.00,,,0.00,Wunderground v.1.15,2013-03-01 13:20:00,
2013-03-01 08:25:00,38.6,30.0,29.79,West,259,14.0,14.0,71,0.00,,,0.00,Wunderground v.1.15,2013-03-01 13:25:00,
2013-03-01 08:30:00,38.6,30.0,29.80,WSW,257,14.0,15.0,71,0.00,,,0.00,Wunderground v.1.15,2013-03-01 13:30:00,
2013-03-01 08:35:00,38.6,30.0,29.80,WSW,246,15.0,15.0,71,0.00,,,0.00,Wunderground v.1.15,2013-03-01 13:35:00,
2013-03-01 08:40:00,38.7,29.8,29.80,West,273,15.0,17.0,70,0.00,,,0.00,Wunderground v.1.15,2013-03-01 13:40:00,
2013-03-01 08:50:00,39.1,30.1,29.80,West,273,11.0,11.0,70,0.00,,,0.00,Wunderground v.1.15,2013-03-01 13:50:00,
2013-03-01 08:55:00,39.7,30.0,29.80,West,271,13.0,15.0,68,0.00,,,0.00,Wunderground v.1.15,2013-03-01 13:55:00,
2013-03-01 09:00:00,39.8,29.7,29.80,West,273,16.0,25.0,67,0.00,,,0.00,Wunderground v.1.15,2013-03-01 14:00:00,
2013-03-01 09:10:00,40.2,30.1,29.80,WSW,257,14.0,14.0,67,0.00,,,0.00,Wunderground v.1.15,2013-03-01 14:10:00,
2013-03-01 09:20:00,39.6,29.5,29.80,SW,235,14.0,14.0,67,0.00,,,0.00,Wunderground v.1.15,2013-03-01 14:20:00,
2013-03-01 09:25:00,39.8,29.7,29.80,WNW,291,13.0,14.0,67,0.00,,,0.00,Wunderground v.1.15,2013-03-01 14:25:00,
2013-03-01 09:30:00,39.8,29.7,29.80,WNW,290,13.0,13.0,67,0.00,,,0.00,Wunderground v.1.15,2013-03-01 14:30:00,
2013-03-01 09:35:00,40.0,29.6,29.80,WSW,256,14.0,16.0,66,0.00,,,0.00,Wunderground v.1.15,2013-03-01 14:35:00,
2013-03-01 09:40:00,39.8,29.4,29.80,WNW,288,16.0,20.0,66,0.00,,,0.00,Wunderground v.1.15,2013-03-01 14:40:00,
2013-03-01 09:45:00,39.7,29.3,29.79,WSW,250,17.0,20.0,66,0.00,,,0.00,Wunderground v.1.15,2013-03-01 14:45:00,
2013-03-01 09:55:00,40.0,29.6,29.79,WNW,283,15.0,21.0,66,0.00,,,0.00,Wunderground v.1.15,2013-03-01 14:55:00,
2013-03-01 10:00:00,40.4,29.2,29.80,NW,309,13.0,13.0,64,0.00,,,0.00,Wunderground v.1.15,2013-03-01 15:00:00,
2013-03-01 10:10:00,41.0,29.7,29.80,NW,306,11.0,11.0,64,0.00,,,0.00,Wunderground v.1.15,2013-03-01 15:10:00,
2013-03-01 10:15:00,40.9,29.3,29.80,West,265,14.0,14.0,63,0.00,,,0.00,Wunderground v.1.15,2013-03-01 15:15:00,
2013-03-01 10:25:00,40.9,29.3,29.80,WSW,240,13.0,16.0,63,0.00,,,0.00,Wunderground v.1.15,2013-03-01 15:25:00,
2013-03-01 10:30:00,41.1,29.5,29.80,West,277,10.0,10.0,63,0.00,,,0.00,Wunderground v.1.15,2013-03-01 15:30:00,
2013-03-01 10:35:00,41.5,29.4,29.80,NW,324,8.0,10.0,62,0.00,,,0.00,Wunderground v.1.15,2013-03-01 15:35:00,
2013-03-01 10:40:00,41.3,29.3,29.80,NNW,344,9.0,9.0,62,0.00,,,0.00,Wunderground v.1.15,2013-03-01 15:40:00,
2013-03-01 10:45:00,41.4,29.3,29.80,West,265,11.0,11.0,62,0.00,,,0.00,Wunderground v.1.15,2013-03-01 15:45:00,
2013-03-01 10:50:00,41.6,29.5,29.80,North,11,10.0,10.0,62,0.00,,,0.00,Wunderground v.1.15,2013-03-01 15:50:00,
2013-03-01 10:55:00,41.6,29.1,29.80,NW,316,10.0,10.0,61,0.00,,,0.00,Wunderground v.1.15,2013-03-01 15:55:00,
2013-03-01 11:00:00,42.0,29.5,29.81,NNW,328,9.0,9.0,61,0.00,,,0.00,Wunderground v.1.15,2013-03-01 16:00:00,
2013-03-01 11:10:00,42.6,29.7,29.81,WSW,251,8.0,9.0,60,0.00,,,0.00,Wunderground v.1.15,2013-03-01 16:10:00,
2013-03-01 11:15:00,42.4,29.9,29.81,NW,321,8.0,9.0,61,0.00,,,0.00,Wunderground v.1.15,2013-03-01 16:15:00,
2013-03-01 11:20:00,42.2,29.3,29.81,WNW,287,8.0,8.0,60,0.00,,,0.00,Wunderground v.1.15,2013-03-01 16:20:00,
2013-03-01 11:30:00,42.7,29.8,29.81,West,267,7.0,14.0,60,0.00,,,0.00,Wunderground v.1.15,2013-03-01 16:30:00,
2013-03-01 11:35:00,42.6,29.7,29.81,West,277,9.0,14.0,60,0.00,,,0.00,Wunderground v.1.15,2013-03-01 16:35:00,
2013-03-01 11:40:00,42.9,29.5,29.81,West,275,8.0,14.0,59,0.00,,,0.00,Wunderground v.1.15,2013-03-01 16:40:00,
2013-03-01 11:45:00,42.7,29.4,29.81,WSW,241,8.0,14.0,59,0.00,,,0.00,Wunderground v.1.15,2013-03-01 16:45:00,
2013-03-01 11:50:00,42.6,29.3,29.81,WNW,284,9.0,9.0,59,0.00,,,0.00,Wunderground v.1.15,2013-03-01 16:50:00,
2013-03-01 12:00:00,42.5,27.9,29.81,West,264,8.0,15.0,56,0.00,,,0.00,Wunderground v.1.15,2013-03-01 17:00:00,
2013-03-01 12:10:00,41.7,28.0,29.81,WNW,290,14.0,15.0,58,0.00,,,0.00,Wunderground v.1.15,2013-03-01 17:10:00,
2013-03-01 12:15:00,41.7,28.0,29.81,West,269,13.0,15.0,58,0.00,,,0.00,Wunderground v.1.15,2013-03-01 17:15:00,
2013-03-01 12:20:00,41.8,27.7,29.81,West,269,11.0,12.0,57,0.00,,,0.00,Wunderground v.1.15,2013-03-01 17:20:00,
2013-03-01 12:25:00,42.0,28.3,29.81,WSW,244,10.0,12.0,58,0.00,,,0.00,Wunderground v.1.15,2013-03-01 17:25:00,
2013-03-01 12:35:00,42.3,28.6,29.81,NW,319,10.0,12.0,58,0.00,,,0.00,Wunderground v.1.15,2013-03-01 17:35:00,
2013-03-01 12:40:00,42.3,28.1,29.81,NNW,329,9.0,9.0,57,0.00,,,0.00,Wunderground v.1.15,2013-03-01 17:40:00,
2013-03-01 12:45:00,42.4,29.1,29.81,West,274,8.0,11.0,59,0.00,,,0.00,Wunderground v.1.15,2013-03-01 17:45:00,
2013-03-01 12:50:00,42.5,29.2,29.81,West,271,7.0,7.0,59,0.00,,,0.00,Wunderground v.1.15,2013-03-01 17:50:00,
2013-03-01 12:55:00,42.1,28.4,29.81,West,281,8.0,8.0,58,0.00,,,0.00,Wunderground v.1.15,2013-03-01 17:55:00,
2013-03-01 13:00:00,41.7,28.0,29.81,West,270,9.0,9.0,58,0.00,,,0.00,Wunderground v.1.15,2013-03-01 18:00:00,
2013-03-01 13:10:00,41.0,27.8,29.81,West,261,9.0,9.0,59,0.00,,,0.00,Wunderground v.1.15,2013-03-01 18:10:00,
2013-03-01 13:15:00,40.9,27.7,29.81,West,276,8.0,9.0,59,0.00,,,0.00,Wunderground v.1.15,2013-03-01 18:15:00,
2013-03-01 13:20:00,40.9,28.1,29.81,West,275,6.0,7.0,60,0.00,,,0.00,Wunderground v.1.15,2013-03-01 18:20:00,
2013-03-01 13:25:00,40.7,27.9,29.80,West,278,6.0,8.0,60,0.00,,,0.00,Wunderground v.1.15,2013-03-01 18:25:00,
2013-03-01 13:30:00,40.6,27.8,29.80,West,275,7.0,9.0,60,0.00,,,0.00,Wunderground v.1.15,2013-03-01 18:30:00,
2013-03-01 13:40:00,40.6,27.8,29.80,WSW,247,6.0,7.0,60,0.00,,,0.00,Wunderground v.1.15,2013-03-01 18:40:00,
2013-03-01 13:45:00,40.5,27.7,29.79,West,260,6.0,7.0,60,0.00,,,0.00,Wunderground v.1.15,2013-03-01 18:45:00,
2013-03-01 13:50:00,40.5,27.7,29.79,SW,225,6.0,6.0,60,0.00,,,0.00,Wunderground v.1.15,2013-03-01 18:50:00,
2013-03-01 13:55:00,40.6,27.4,29.79,West,259,5.0,7.0,59,0.00,,,0.00,Wunderground v.1.15,2013-03-01 18:55:00,
2013-03-01 14:00:00,40.7,27.5,29.79,West,276,6.0,9.0,59,0.00,,,0.00,Wunderground v.1.15,2013-03-01 19:00:00,
2013-03-01 14:10:00,40.9,27.2,29.79,NNW,338,6.0,7.0,58,0.00,,,0.00,Wunderground v.1.15,2013-03-01 19:10:00,
2013-03-01 14:15:00,40.8,27.2,29.79,WSW,257,7.0,8.0,58,0.00,,,0.00,Wunderground v.1.15,2013-03-01 19:15:00,
2013-03-01 14:20:00,40.7,27.1,29.79,WSW,250,8.0,8.0,58,0.00,,,0.00,Wunderground v.1.15,2013-03-01 19:20:00,
2013-03-01 14:25:00,40.7,27.1,29.79,West,274,8.0,8.0,58,0.00,,,0.00,Wunderground v.1.15,2013-03-01 19:25:00,
2013-03-01 14:30:00,40.8,27.2,29.79,WNW,282,7.0,8.0,58,0.00,,,0.00,Wunderground v.1.15,2013-03-01 19:30:00,
2013-03-01 14:35:00,40.7,27.1,29.79,NNW,327,7.0,8.0,58,0.00,,,0.00,Wunderground v.1.15,2013-03-01 19:35:00,
2013-03-01 14:40:00,40.8,27.2,29.79,NW,308,6.0,6.0,58,0.00,,,0.00,Wunderground v.1.15,2013-03-01 19:40:00,
2013-03-01 14:45:00,40.8,26.7,29.79,West,271,5.0,6.0,57,0.00,,,0.00,Wunderground v.1.15,2013-03-01 19:45:00,
2013-03-01 14:50:00,40.8,26.3,29.79,NW,306,4.0,4.0,56,0.00,,,0.00,Wunderground v.1.15,2013-03-01 19:50:00,
2013-03-01 14:55:00,40.8,26.7,29.79,West,268,5.0,5.0,57,0.00,,,0.00,Wunderground v.1.15,2013-03-01 19:55:00,
2013-03-01 15:00:00,40.9,26.8,29.79,West,260,7.0,12.0,57,0.00,,,0.00,Wunderground v.1.15,2013-03-01 20:00:00,
2013-03-01 15:10:00,41.1,27.4,29.79,West,261,9.0,9.0,58,0.00,,,0.00,Wunderground v.1.15,2013-03-01 20:10:00,
2013-03-01 15:15:00,40.9,26.4,29.79,West,259,9.0,9.0,56,0.00,,,0.00,Wunderground v.1.15,2013-03-01 20:15:00,
2013-03-01 15:20:00,40.8,25.9,29.79,West,269,9.0,12.0,55,0.00,,,0.00,Wunderground v.1.15,2013-03-01 20:20:00,
2013-03-01 15:25:00,40.7,25.8,29.79,West,259,9.0,12.0,55,0.00,,,0.00,Wunderground v.1.15,2013-03-01 20:25:00,
2013-03-01 15:30:00,40.8,25.9,29.79,WNW,282,9.0,12.0,55,0.00,,,0.00,Wunderground v.1.15,2013-03-01 20:30:00,
2013-03-01 15:35:00,40.8,26.3,29.79,West,279,8.0,12.0,56,0.00,,,0.00,Wunderground v.1.15,2013-03-01 20:35:00,
2013-03-01 15:45:00,40.8,26.3,29.79,WSW,255,10.0,10.0,56,0.00,,,0.00,Wunderground v.1.15,2013-03-01 20:45:00,
2013-03-01 15:50:00,40.7,26.2,29.79,WNW,284,10.0,10.0,56,0.00,,,0.00,Wunderground v.1.15,2013-03-01 20:50:00,
2013-03-01 15:55:00,40.8,26.7,29.79,NW,306,8.0,13.0,57,0.00,,,0.00,Wunderground v.1.15,2013-03-01 20:55:00,
2013-03-01 16:00:00,40.8,26.3,29.79,WNW,284,9.0,10.0,56,0.00,,,0.00,Wunderground v.1.15,2013-03-01 21:00:00,
2013-03-01 16:10:00,40.6,26.1,29.79,West,265,8.0,11.0,56,0.00,,,0.00,Wunderground v.1.15,2013-03-01 21:10:00,
2013-03-01 16:20:00,40.4,25.9,29.79,WNW,286,8.0,8.0,56,0.00,,,0.00,Wunderground v.1.15,2013-03-01 21:20:00,
2013-03-01 16:25:00,40.3,25.8,29.80,West,277,7.0,8.0,56,0.00,,,0.00,Wunderground v.1.15,2013-03-01 21:25:00,
2013-03-01 16:30:00,40.3,26.3,29.80,NW,325,6.0,9.0,57,0.00,,,0.00,Wunderground v.1.15,2013-03-01 21:30:00,
2013-03-01 16:35:00,40.3,25.8,29.80,WNW,288,5.0,11.0,56,0.00,,,0.00,Wunderground v.1.15,2013-03-01 21:35:00,
2013-03-01 16:40:00,40.2,26.2,29.80,WNW,291,8.0,8.0,57,0.00,,,0.00,Wunderground v.1.15,2013-03-01 21:40:00,
2013-03-01 16:50:00,40.0,26.0,29.81,North,360,8.0,8.0,57,0.00,,,0.00,Wunderground v.1.15,2013-03-01 21:50:00,
2013-03-01 16:55:00,40.0,26.4,29.81,WNW,300,7.0,8.0,58,0.00,,,0.00,Wunderground v.1.15,2013-03-01 21:55:00,
2013-03-01 17:00:00,39.9,26.7,29.81,NW,313,6.0,10.0,59,0.00,,,0.00,Wunderground v.1.15,2013-03-01 22:00:00,
2013-03-01 17:10:00,39.5,26.3,29.81,West,275,9.0,9.0,59,0.00,,,0.00,Wunderground v.1.15,2013-03-01 22:10:00,
2013-03-01 17:15:00,39.3,26.6,29.81,West,280,10.0,13.0,60,0.00,,,0.00,Wunderground v.1.15,2013-03-01 22:15:00,
2013-03-01 17:25:00,38.9,26.6,29.81,West,281,8.0,13.0,61,0.00,,,0.00,Wunderground v.1.15,2013-03-01 22:25:00,
2013-03-01 17:30:00,38.7,26.8,29.82,NW,317,8.0,8.0,62,0.00,,,0.00,Wunderground v.1.15,2013-03-01 22:30:00,
2013-03-01 17:35:00,38.6,26.7,29.82,WNW,292,8.0,8.0,62,0.00,,,0.00,Wunderground v.1.15,2013-03-01 22:35:00,
2013-03-01 17:40:00,38.4,26.9,29.82,WNW,285,7.0,7.0,63,0.00,,,0.00,Wunderground v.1.15,2013-03-01 22:40:00,
2013-03-01 17:45:00,38.3,26.8,29.83,NNW,341,4.0,7.0,63,0.00,,,0.00,Wunderground v.1.15,2013-03-01 22:45:00,
2013-03-01 17:55:00,38.1,27.0,29.83,NNW,336,4.0,11.0,64,0.00,,,0.00,Wunderground v.1.15,2013-03-01 22:55:00,
2013-03-01 18:00:00,38.1,27.0,29.83,North,349,5.0,5.0,64,0.00,,,0.00,Wunderground v.1.15,2013-03-01 23:00:00,
2013-03-01 18:10:00,37.9,27.2,29.83,NNW,346,3.0,3.0,65,0.00,,,0.00,Wunderground v.1.15,2013-03-01 23:10:00,
2013-03-01 18:15:00,37.8,27.5,29.83,North,355,4.0,4.0,66,0.00,,,0.00,Wunderground v.1.15,2013-03-01 23:15:00,
2013-03-01 18:20:00,37.7,27.0,29.83,North,355,4.0,4.0,65,0.00,,,0.00,Wunderground v.1.15,2013-03-01 23:20:00,
2013-03-01 18:25:00,37.7,27.4,29.83,North,355,2.0,4.0,66,0.00,,,0.00,Wunderground v.1.15,2013-03-01 23:25:00,
2013-03-01 18:30:00,37.6,26.9,29.84,NNW,348,2.0,2.0,65,0.00,,,0.00,Wunderground v.1.15,2013-03-01 23:30:00,
2013-03-01 18:35:00,37.5,26.8,29.84,NW,325,2.0,2.0,65,0.00,,,0.00,Wunderground v.1.15,2013-03-01 23:35:00,
2013-03-01 18:40:00,37.5,27.2,29.84,NNW,329,3.0,3.0,66,0.00,,,0.00,Wunderground v.1.15,2013-03-01 23:40:00,
2013-03-01 18:45:00,37.4,27.1,29.84,North,355,3.0,6.0,66,0.00,,,0.00,Wunderground v.1.15,2013-03-01 23:45:00,
2013-03-01 18:50:00,37.4,26.7,29.84,WNW,290,4.0,4.0,65,0.00,,,0.00,Wunderground v.1.15,2013-03-01 23:50:00,
2013-03-01 19:00:00,37.3,27.0,29.85,North,10,2.0,2.0,66,0.00,,,0.00,Wunderground v.1.15,2013-03-02 00:00:00,
2013-03-01 19:10:00,37.1,27.2,29.85,NNW,330,4.0,4.0,67,0.00,,,0.00,Wunderground v.1.15,2013-03-02 00:10:00,
2013-03-01 19:15:00,37.1,27.2,29.85,NNW,348,4.0,4.0,67,0.00,,,0.00,Wunderground v.1.15,2013-03-02 00:15:00,
2013-03-01 19:20:00,37.0,27.1,29.85,NNW,344,3.0,3.0,67,0.00,,,0.00,Wunderground v.1.15,2013-03-02 00:20:00,
2013-03-01 19:30:00,36.8,27.2,29.85,North,351,3.0,6.0,68,0.00,,,0.00,Wunderground v.1.15,2013-03-02 00:30:00,
2013-03-01 19:35:00,36.8,27.2,29.85,NNW,336,5.0,10.0,68,0.00,,,0.00,Wunderground v.1.15,2013-03-02 00:35:00,
2013-03-01 19:40:00,36.7,27.1,29.85,NW,323,5.0,5.0,68,0.00,,,0.00,Wunderground v.1.15,2013-03-02 00:40:00,
2013-03-01 19:45:00,36.6,27.0,29.85,NW,318,4.0,5.0,68,0.00,,,0.00,Wunderground v.1.15,2013-03-02 00:45:00,
2013-03-01 19:50:00,36.5,27.3,29.86,NW,326,3.0,3.0,69,0.00,,,0.00,Wunderground v.1.15,2013-03-02 00:50:00,
2013-03-01 19:55:00,36.4,26.8,29.86,West,267,3.0,3.0,68,0.00,,,0.00,Wunderground v.1.15,2013-03-02 00:55:00,
2013-03-01 20:00:00,36.4,26.8,29.86,NW,307,3.0,3.0,68,0.00,,,0.00,Wunderground v.1.15,2013-03-02 01:00:00,
2013-03-01 20:10:00,36.2,26.6,29.86,NW,304,3.0,3.0,68,0.00,,,0.00,Wunderground v.1.15,2013-03-02 01:10:00,
2013-03-01 20:15:00,36.1,26.6,29.87,West,281,3.0,3.0,68,0.00,,,0.00,Wunderground v.1.15,2013-03-02 01:15:00,
2013-03-01 20:20:00,36.0,26.5,29.87,West,281,1.0,1.0,68,0.00,,,0.00,Wunderground v.1.15,2013-03-02 01:20:00,
2013-03-01 20:25:00,35.9,26.7,29.87,West,281,1.0,3.0,69,0.00,,,0.00,Wunderground v.1.15,2013-03-02 01:25:00,
2013-03-01 20:35:00,35.7,26.5,29.88,West,277,2.0,4.0,69,0.00,,,0.00,Wunderground v.1.15,2013-03-02 01:35:00,
2013-03-01 20:40:00,35.6,26.4,29.88,NW,308,2.0,3.0,69,0.00,,,0.00,Wunderground v.1.15,2013-03-02 01:40:00,
2013-03-01 20:45:00,35.6,26.4,29.88,WNW,283,2.0,3.0,69,0.00,,,0.00,Wunderground v.1.15,2013-03-02 01:45:00,
2013-03-01 20:50:00,35.6,26.1,29.88,West,263,3.0,5.0,68,0.00,,,0.00,Wunderground v.1.15,2013-03-02 01:50:00,
2013-03-01 20:55:00,35.6,26.4,29.88,West,279,3.0,5.0,69,0.00,,,0.00,Wunderground v.1.15,2013-03-02 01:55:00,
2013-03-01 21:00:00,35.5,26.3,29.88,WNW,300,2.0,3.0,69,0.00,,,0.00,Wunderground v.1.15,2013-03-02 02:00:00,
2013-03-01 21:10:00,35.4,25.5,29.88,NW,308,4.0,4.0,67,0.00,,,0.00,Wunderground v.1.15,2013-03-02 02:10:00,
2013-03-01 21:15:00,35.3,25.4,29.88,West,275,5.0,8.0,67,0.00,,,0.00,Wunderground v.1.15,2013-03-02 02:15:00,
2013-03-01 21:20:00,35.3,25.4,29.88,WNW,292,6.0,9.0,67,0.00,,,0.00,Wunderground v.1.15,2013-03-02 02:20:00,
2013-03-01 21:25:00,35.1,25.2,29.88,West,280,7.0,10.0,67,0.00,,,0.00,Wunderground v.1.15,2013-03-02 02:25:00,
2013-03-01 21:30:00,35.1,25.2,29.88,West,271,8.0,9.0,67,0.00,,,0.00,Wunderground v.1.15,2013-03-02 02:30:00,
2013-03-01 21:40:00,34.9,24.7,29.87,WNW,282,8.0,8.0,66,0.00,,,0.00,Wunderground v.1.15,2013-03-02 02:40:00,
2013-03-01 21:45:00,34.7,24.5,29.87,WNW,296,8.0,8.0,66,0.00,,,0.00,Wunderground v.1.15,2013-03-02 02:45:00,
2013-03-01 21:50:00,34.7,24.1,29.87,West,274,8.0,8.0,65,0.00,,,0.00,Wunderground v.1.15,2013-03-02 02:50:00,
2013-03-01 21:55:00,34.5,23.9,29.87,WNW,283,8.0,10.0,65,0.00,,,0.00,Wunderground v.1.15,2013-03-02 02:55:00,
2013-03-01 22:00:00,34.4,23.8,29.87,WNW,290,7.0,8.0,65,0.00,,,0.00,Wunderground v.1.15,2013-03-02 03:00:00,
2013-03-01 22:10:00,34.2,23.3,29.87,WNW,289,10.0,13.0,64,0.00,,,0.00,Wunderground v.1.15,2013-03-02 03:10:00,
2013-03-01 22:15:00,34.2,23.3,29.87,NNW,344,11.0,13.0,64,0.00,,,0.00,Wunderground v.1.15,2013-03-02 03:15:00,
2013-03-01 22:20:00,34.1,23.2,29.87,West,273,12.0,12.0,64,0.00,,,0.00,Wunderground v.1.15,2013-03-02 03:20:00,
2013-03-01 22:25:00,34.1,23.2,29.87,West,276,11.0,14.0,64,0.00,,,0.00,Wunderground v.1.15,2013-03-02 03:25:00,
2013-03-01 22:30:00,33.9,23.0,29.87,WSW,255,11.0,11.0,64,0.00,,,0.00,Wunderground v.1.15,2013-03-02 03:30:00,
2013-03-01 22:35:00,33.9,23.0,29.87,West,281,11.0,16.0,64,0.00,,,0.00,Wunderground v.1.15,2013-03-02 03:35:00,
2013-03-01 22:45:00,33.9,23.0,29.86,WNW,292,11.0,14.0,64,0.00,,,0.00,Wunderground v.1.15,2013-03-02 03:45:00,
2013-03-01 22:50:00,33.8,22.9,29.87,West,268,11.0,12.0,64,0.00,,,0.00,Wunderground v.1.15,2013-03-02 03:50:00,
2013-03-01 22:55:00,33.8,23.3,29.86,West,274,10.0,12.0,65,0.00,,,0.00,Wunderground v.1.15,2013-03-02 03:55:00,
2013-03-01 23:00:00,33.7,23.2,29.86,WSW,252,9.0,12.0,65,0.00,,,0.00,Wunderground v.1.15,2013-03-02 04:00:00,
2013-03-01 23:10:00,33.8,22.9,29.86,West,267,11.0,11.0,64,0.00,,,0.00,Wunderground v.1.15,2013-03-02 04:10:00,
2013-03-01 23:15:00,33.8,23.3,29.86,West,272,10.0,12.0,65,0.00,,,0.00,Wunderground v.1.15,2013-03-02 04:15:00,
2013-03-01 23:20:00,33.7,23.2,29.86,NW,308,11.0,11.0,65,0.00,,,0.00,Wunderground v.1.15,2013-03-02 04:20:00,
2013-03-01 23:25:00,33.7,23.2,29.86,West,278,11.0,11.0,65,0.00,,,0.00,Wunderground v.1.15,2013-03-02 04:25:00,
2013-03-01 23:30:00,33.7,23.2,29.86,WNW,289,10.0,13.0,65,0.00,,,0.00,Wunderground v.1.15,2013-03-02 04:30:00,
2013-03-01 23:35:00,33.7,23.2,29.86,West,278,10.0,13.0,65,0.00,,,0.00,Wunderground v.1.15,2013-03-02 04:35:00,
2013-03-01 23:40:00,33.7,23.2,29.85,West,265,10.0,10.0,65,0.00,,,0.00,Wunderground v.1.15,2013-03-02 04:40:00,
2013-03-01 23:50:00,33.7,23.2,29.86,West,261,10.0,10.0,65,0.00,,,0.00,Wunderground v.1.15,2013-03-02 04:50:00,
2013-03-01 23:55:00,33.8,23.3,29.85,West,265,10.0,11.0,65,0.00,,,0.00,Wunderground v.1.15,2013-03-02 04:55:00,